Content
SEND FEEDBACK

Daily
Averages
Monthly
Summary
United States of America

ANGIE, LOUISIANA


Home > North America > United States > Louisiana
Elevation: 10 feet     Latitude: 30 47N     Longitude: 089 52W

WEATHER
 
SELECT A DAY
Number of Records: 172,972;   Date Range: 8/13/98 - 8/17/14
 
SHARE

PRINT THIS DATA

[ ← Previous Day ]
WEATHER ALMANAC - FEBRUARY 5, 2013
[ Next Day → ]
[ °C ]   °F
Weather ElementAverageHighLow
Temperature59 °F71.1 °F (3:53 pm)51.1 °F (11:53 pm)
Dewpoint57 °F62.6 °F (1:30 pm)51.1 °F (11:53 pm)
Humidity93.8 %100 % (12:53 am)70 % (3:53 pm)
Barometer29.99 in30.03 in (9:20 pm)29.93 in (2:19 am)
Wind Speed0.7 mph5.8 mph (1:53 am)
Weather ElementAverage
Visibility6.3 mi
Wind DirectionNNE (10.3 °)

Weather ElementTotal
Precipitation0.01 in
Heating Degree Days3.9 (Base 65)
Growing Degree Days11.1 (Base 50)
Averaged from 61 records on February 5, 2013
WEATHER CONDITIONS BREAKOUT
WIND DIRECTION BREAKOUT
WEATHER BY HOUR - FEBRUARY 5, 2013
[ °C ]   °F
Local TimeTemperatureDewpointHumidityBarometerVisibilityWind DirectionWind SpeedGust SpeedPrecipitationEventsConditions
12:53 AM57.9 °F57.9 °F100 %29.95 in10.0 miENE (70°)3.5 mph0.01 inOvercast
1:41 AM57.2 °F57.2 °F100 %29.94 in10.0 miENE (70°)3.5 mph0.00 inOvercast
1:53 AM57.9 °F57.9 °F100 %29.94 in10.0 miNE (40°)5.8 mph0.00 inOvercast
2:19 AM57.2 °F57.2 °F100 %29.93 in10.0 miEast (80°)5.8 mphOvercast
2:53 AM57.9 °F57.9 °F100 %29.93 in10.0 miENE (60°)4.6 mphOvercast
3:53 AM59.0 °F57.9 °F96 %29.94 in10.0 miCalmOvercast
4:36 AM57.2 °F57.2 °F100 %29.93 in10.0 miCalmOvercast
4:53 AM59.0 °F57.9 °F96 %29.94 in9.0 miCalmOvercast
5:46 AM57.2 °F57.2 °F100 %29.95 in8.0 miCalmOvercast
5:53 AM57.9 °F57.0 °F97 %29.95 in8.0 miCalmOvercast
6:36 AM55.4 °F55.4 °F100 %29.96 in1.5 miCalmPartly Cloudy
6:42 AM53.6 °F53.6 °F100 %29.96 in0.5 miCalmFogFog
6:53 AM54.0 °F54.0 °F100 %29.97 in0.2 miCalmFogFog
7:25 AM55.4 °F55.4 °F100 %29.98 in1.5 miCalmScattered Clouds
7:27 AM53.6 °F53.6 °F100 %29.98 in3.0 miCalmPartly Cloudy
7:38 AM53.6 °F53.6 °F100 %29.98 in1.8 miCalmScattered Clouds
7:50 AM55.4 °F55.4 °F100 %29.98 in1.2 miCalmMostly Cloudy
7:53 AM55.0 °F55.0 °F100 %29.98 in2.0 miCalmMostly Cloudy
8:03 AM55.4 °F55.4 °F100 %29.98 in4.0 miCalmOvercast
8:53 AM60.1 °F59.0 °F96 %30.00 in10.0 miCalmOvercast
9:25 AM60.8 °F59.0 °F94 %30.01 in10.0 miCalmOvercast
9:53 AM62.1 °F59.0 °F90 %30.02 in10.0 miESE (120°)4.6 mphOvercast
10:17 AM62.6 °F60.8 °F94 %30.01 in10.0 miCalmOvercast
10:33 AM62.6 °F60.8 °F94 %30.01 in10.0 miCalmOvercast
10:53 AM63.0 °F60.1 °F90 %30.02 in10.0 miCalmOvercast
11:24 AM64.4 °F60.8 °F88 %30.01 in10.0 miVariable3.5 mphOvercast
11:30 AM64.4 °F60.8 °F88 %30.01 in10.0 miCalmOvercast
11:38 AM64.4 °F60.8 °F88 %30.01 in10.0 miCalmOvercast
11:53 AM64.9 °F61.0 °F87 %30.01 in10.0 miCalmOvercast
12:47 PM66.2 °F60.8 °F83 %29.99 in10.0 miCalmOvercast
1:19 PM66.2 °F60.8 °F83 %29.98 in10.0 miCalmOvercast
1:30 PM69.8 °F62.6 °F78 %29.97 in10.0 miVariable4.6 mphOvercast
1:38 PM69.8 °F60.8 °F73 %29.97 in10.0 miCalmOvercast
1:46 PM69.8 °F60.8 °F73 %29.97 in10.0 miCalmOvercast
1:53 PM69.1 °F61.0 °F75 %29.97 in10.0 miCalmOvercast
2:04 PM69.8 °F60.8 °F73 %29.97 in10.0 miCalmOvercast
2:53 PM69.1 °F61.0 °F75 %29.96 in10.0 miCalmOvercast
3:53 PM71.1 °F61.0 °F70 %29.96 in10.0 miNorth (10°)4.6 mphOvercast
4:53 PM69.1 °F61.0 °F75 %29.96 in10.0 miCalmOvercast
5:53 PM64.0 °F62.1 °F93 %29.96 in10.0 miCalmMostly Cloudy
6:53 PM60.1 °F59.0 °F96 %29.99 in9.0 miCalmClear
7:44 PM57.2 °F57.2 °F100 %30.00 in1.5 miCalmClear
7:47 PM55.4 °F55.4 °F100 %30.00 in0.8 miSouth (180°)3.5 mphMist
7:53 PM57.0 °F57.0 °F100 %30.01 in0.8 miCalmMist
8:09 PM55.4 °F55.4 °F100 %30.01 in2.5 miCalmMostly Cloudy
8:12 PM55.4 °F55.4 °F100 %30.01 in5.0 miCalmScattered Clouds
8:53 PM55.9 °F55.0 °F97 %30.02 in5.0 miCalmClear
9:00 PM55.4 °F55.4 °F100 %30.02 in1.8 miCalmClear
9:06 PM55.4 °F53.6 °F94 %30.02 in2.5 miCalmPartly Cloudy
9:13 PM55.4 °F55.4 °F100 %30.02 in4.0 miCalmScattered Clouds
9:20 PM55.4 °F55.4 °F100 %30.03 in3.0 miCalmMostly Cloudy
9:53 PM54.0 °F54.0 °F100 %30.03 in7.0 miCalmMostly Cloudy
10:06 PM55.4 °F53.6 °F94 %30.03 in8.0 miCalmScattered Clouds
10:18 PM53.6 °F53.6 °F100 %30.03 in1.5 miCalmScattered Clouds
10:20 PM53.6 °F51.8 °F94 %30.03 in0.8 miCalmMist
10:53 PM52.0 °F52.0 °F100 %30.03 in0.2 miCalmFogFog
11:10 PM51.8 °F51.8 °F100 %30.03 in2.0 miCalmOvercast
11:19 PM51.8 °F51.8 °F100 %30.03 in3.0 miCalmOvercast
11:22 PM51.8 °F51.8 °F100 %30.03 in1.8 miCalmOvercast
11:42 PM51.8 °F51.8 °F100 %30.03 in0.5 miCalmFogFog
11:53 PM51.1 °F51.1 °F100 %30.03 in0.5 miCalmFogFog
Hourly data recorded from KASD, located miles away from Angie, Louisiana







STORIES FROM OUR PARTNERS